TimeEDT,TemperatureF,Dew PointF,Humidity,Sea Level PressureIn,VisibilityMPH,Wind Direction,Wind SpeedMPH,Gust SpeedMPH,PrecipitationIn,Events,Conditions,WindDirDegrees,DateUTC
12:54 AM,55.0,52.0,89,29.93,6.0,Calm,Calm,-,0.00,,Overcast,0,2012-09-30 04:54:00
1:01 AM,55.4,51.8,88,29.93,7.0,Calm,Calm,-,N/A,,Overcast,0,2012-09-30 05:01:00
1:16 AM,55.4,51.8,88,29.91,9.0,North,3.5,-,N/A,,Overcast,360,2012-09-30 05:16:00
1:25 AM,55.4,51.8,88,29.91,9.0,Calm,Calm,-,N/A,,Overcast,0,2012-09-30 05:25:00
1:54 AM,55.0,52.0,89,29.92,7.0,Calm,Calm,-,N/A,,Overcast,0,2012-09-30 05:54:00
2:09 AM,55.4,51.8,88,29.92,8.0,Calm,Calm,-,N/A,,Overcast,0,2012-09-30 06:09:00
2:18 AM,55.4,51.8,88,29.92,9.0,Calm,Calm,-,N/A,,Overcast,0,2012-09-30 06:18:00
2:40 AM,55.4,51.8,88,29.91,4.0,Calm,Calm,-,N/A,,Overcast,0,2012-09-30 06:40:00
2:54 AM,55.0,52.0,89,29.90,6.0,North,3.5,-,N/A,,Overcast,10,2012-09-30 06:54:00
3:54 AM,55.0,52.0,89,29.90,10.0,NNE,3.5,-,N/A,,Overcast,20,2012-09-30 07:54:00
4:04 AM,55.4,51.8,88,29.90,10.0,NE,3.5,-,N/A,,Overcast,50,2012-09-30 08:04:00
4:54 AM,55.0,52.0,89,29.89,10.0,Calm,Calm,-,N/A,,Overcast,0,2012-09-30 08:54:00
5:29 AM,55.4,51.8,88,29.88,10.0,Calm,Calm,-,N/A,,Overcast,0,2012-09-30 09:29:00
5:41 AM,55.4,51.8,88,29.88,10.0,Calm,Calm,-,N/A,,Overcast,0,2012-09-30 09:41:00
5:54 AM,55.0,52.0,89,29.89,10.0,Calm,Calm,-,N/A,,Overcast,0,2012-09-30 09:54:00
6:54 AM,55.0,52.0,89,29.89,10.0,Calm,Calm,-,N/A,,Overcast,0,2012-09-30 10:54:00
7:05 AM,55.4,51.8,88,29.88,10.0,Calm,Calm,-,N/A,,Overcast,0,2012-09-30 11:05:00
7:25 AM,55.4,51.8,88,29.88,10.0,North,3.5,-,N/A,,Overcast,350,2012-09-30 11:25:00
7:54 AM,55.0,52.0,89,29.88,10.0,Calm,Calm,-,N/A,,Overcast,0,2012-09-30 11:54:00
8:35 AM,55.4,51.8,88,29.87,10.0,North,4.6,-,0.00,Rain,Light Rain,360,2012-09-30 12:35:00
8:54 AM,55.0,52.0,89,29.87,10.0,North,5.8,-,0.01,Rain,Light Rain,360,2012-09-30 12:54:00
9:22 AM,55.4,51.8,88,29.87,10.0,North,3.5,-,0.01,Rain,Light Rain,350,2012-09-30 13:22:00
9:54 AM,55.9,52.0,87,29.86,7.0,NNW,3.5,-,0.03,Rain,Light Rain,340,2012-09-30 13:54:00
10:34 AM,55.4,53.6,94,29.84,10.0,NNW,4.6,-,0.02,Rain,Light Rain,340,2012-09-30 14:34:00
10:54 AM,55.9,53.1,90,29.82,10.0,North,6.9,-,0.03,Rain,Light Rain,10,2012-09-30 14:54:00
11:54 AM,55.9,52.0,87,29.80,10.0,North,6.9,-,0.04,Rain,Light Rain,360,2012-09-30 15:54:00
12:54 PM,57.0,53.1,87,29.79,10.0,Calm,Calm,-,0.01,,Overcast,0,2012-09-30 16:54:00
1:47 PM,57.2,53.6,88,29.78,10.0,Calm,Calm,-,0.00,Rain,Light Rain,0,2012-09-30 17:47:00
1:54 PM,57.9,54.0,87,29.78,10.0,WNW,3.5,-,0.00,Rain,Light Rain,300,2012-09-30 17:54:00
2:50 PM,59.0,53.6,82,29.76,10.0,Calm,Calm,-,0.00,,Overcast,0,2012-09-30 18:50:00
2:54 PM,59.0,54.0,83,29.73,10.0,NNE,6.9,-,0.00,,Overcast,20,2012-09-30 18:54:00
3:01 PM,59.0,53.6,82,29.74,10.0,WNW,4.6,-,0.00,Rain,Light Rain,290,2012-09-30 19:01:00
3:13 PM,57.2,53.6,88,29.75,10.0,West,4.6,-,0.00,Rain,Light Rain,270,2012-09-30 19:13:00
3:54 PM,60.1,54.0,80,29.74,10.0,WSW,8.1,-,0.00,,Overcast,250,2012-09-30 19:54:00
4:54 PM,59.0,53.1,81,29.73,10.0,SW,5.8,-,N/A,,Scattered Clouds,230,2012-09-30 20:54:00
5:03 PM,60.8,53.6,77,29.73,10.0,Calm,Calm,-,N/A,,Mostly Cloudy,0,2012-09-30 21:03:00
5:54 PM,59.0,53.1,81,29.73,10.0,South,3.5,-,N/A,,Partly Cloudy,190,2012-09-30 21:54:00
6:54 PM,55.9,53.1,90,29.73,10.0,Calm,Calm,-,N/A,,Clear,0,2012-09-30 22:54:00
7:54 PM,57.2,53.6,88,29.72,10.0,SSW,5.8,-,N/A,,Partly Cloudy,200,2012-09-30 23:54:00
8:54 PM,55.9,52.0,87,29.73,10.0,South,4.6,-,N/A,,Clear,180,2012-10-01 00:54:00
9:54 PM,53.6,51.8,94,29.73,10.0,SSW,6.9,-,N/A,,Partly Cloudy,210,2012-10-01 01:54:00
10:54 PM,53.1,50.0,89,29.73,10.0,SSW,5.8,-,N/A,,Clear,210,2012-10-01 02:54:00
11:54 PM,51.8,48.2,88,29.73,10.0,SSW,5.8,-,N/A,,Clear,210,2012-10-01 03:54:00